Location: Sternwarte auf dem Internationalen Platz Vogelsang IP
(50.5721°N, 6.4398°E)
Time: 12:05:09
(UTC+01:00)

ACS3 Solar Sail - Pass Details

Date: 23 November 2025
Orbit: 888 x 1003 km, 97.3° (Epoch: 07 December)

Event Time Altitude Azimuth Distance (km) Brightness Sun altitude
Rises 03:52:48 0° 13° (NNE) 3,591 5.1 -38.8°
Reaches altitude 10° 03:55:13 10° 14° (NNE) 2,660 4.3 -38.4°
Enters shadow 03:56:48 20° 16° (NNE) 2,063 3.7 -38.2°
